User: anonymous   Login
Location: Aiyekoto
(8.4333°N, 4.3667°E)
Time: 16:29:07
(UTC+00:00)
Language:

Cosmos 2219 Rocket - Orbit

View from above orbital plane
View from above orbital plane
View from above satellite
View from above satellite

Ground track
Ground track

The orbit data is extracted from the following two-line orbital elements,

1 22220U 92076B   20224.93792873 +.00000132 +00000-0 +90341-4 0  9997
2 22220 071.0006 154.7865 0014469 311.3846 112.1699 14.16456680433538
Epoch (UTC): 11 August 2020 22:30:37
Eccentricity: 0.0014469
inclination: 71.0006°
perigee height: 827 km
apogee height: 848 km
right ascension of ascending node: 154.7865°
argument of perigee: 311.3846°
revolutions per day: 14.16456680
mean anomaly at epoch: 112.1699°
orbit number at epoch: 43353

The dashed part of the orbit path shows where the satellite is in the earth's shadow,  

DLR